Weather in Kitoy

Russia / Irkutsk Oblast     52°31′39″N   103°48′04″E
temp.,
°C
wind,
m/s
gust,
m/s
humid.,
%
clouds,
%
prec.,
mm/h
press.,
hPa
HPBL,
m
9 may, sun
sun923:00+7w3891100 0.3 1014247
02:00+7wsw41092100 0.4 1013353
05:00+5sw0196100 0.0 101311
08:00+8ssw248185 0.1 1011378
11:00+13sse1259100 0.0 1010994
14:00+16n1245100 0.0 10071753
17:00+8nnw51083100 2.8 1010749
20:00+8w2485100 3.3 1011284
10 may, mon
mon1023:00+6nnw3681100 0.3 1013298
02:00+5nw4890100 0.3 1013655
05:00+4wnw499095 0.9 1014582
08:00+5nw5978100 1.1 10151087
11:00+6nw4769100 0.1 10151260
14:00+7nw697193 0.5 10151239
17:00+5nw51091100 0.3 1017759
20:00+5nw61182100 0.3 1017937
11 may, tue
tue1123:00+5wnw7138096 0.6 1017864
02:00+4wnw51191100 1.1 1018831
05:00+5nw51191100 0.3 1018765
08:00+5wnw5986100 0.3 1019825
11:00+9nw576688 0.0 10181188
14:00+14nw464397 0.3 10162272
17:00+14nw463652 0.0 10142294
20:00+11nw22555 0.0 101510
12 may, wed
wed1223:00+6wsw11675 0.0 101610
02:00+5sw22761 0.0 101611
05:00+3s11800 0.0 101510
08:00+8ese116221 0.0 1014227
11:00+14n1145100 0.0 1012925
14:00+16nw243651 0.0 10102285
17:00+15nnw563960 0.0 10092091
20:00+12nnw595297 0.0 1012719
13 may, thu
thu1323:00+8nnw3962100 0.0 1016395
02:00+5wnw367094 0.0 1018158
05:00+4wnw377594 0.0 1019243
08:00+7nw355680 0.0 1021521
11:00+10nnw5732100 0.0 10202656
14:00+13nnw562694 0.0 10192897
17:00+13n462637 0.0 10182652
20:00+10ne22392 0.0 101819